| time (UTC) | temp F | wind direction | speed MPH | gust MPH | rain 1hr in | rain 24hr in | rain mn in | humidity % | barometer mb |
| 20260506001621 | 60 | 0.0 | 0.0 | 0.00 | 0.00 | 0.00 | 60 | 1013.1 | |
| 20260506000558 | 61 | 23 | 1.0 | 4.0 | 0.00 | 0.00 | 0.00 | 58 | 1013.2 |
| 20260505235556 | 60 | 23 | 0.0 | 2.0 | 0.00 | 0.00 | 0.00 | 60 | 1013.3 |
| 20260505234553 | 60 | 13 | 0.0 | 2.0 | 0.00 | 0.00 | 0.00 | 60 | 1013.4 |
| 20260505233551 | 59 | 0.0 | 0.0 | 0.00 | 0.00 | 0.00 | 62 | 1013.5 | |
| 20260505232548 | 59 | 0.0 | 0.0 | 0.00 | 0.00 | 0.00 | 63 | 1013.4 | |
| 20260505231625 | 59 | 0.0 | 0.0 | 0.00 | 0.00 | 0.00 | 65 | 1013.3 | |
| 20260505230543 | 60 | 0.0 | 0.0 | 0.00 | 0.00 | 0.00 | 65 | 1013.5 | |
| 20260505225540 | 60 | 0.0 | 0.0 | 0.00 | 0.00 | 0.00 | 65 | 1013.6 | |
| 20260505224638 | 60 | 0.0 | 0.0 | 0.00 | 0.00 | 0.00 | 66 | 1013.7 | |
| 20260505223535 | 61 | 188 | 0.0 | 2.0 | 0.00 | 0.00 | 0.00 | 63 | 1013.7 |
| 20260505222532 | 60 | 0.0 | 2.0 | 0.00 | 0.00 | 0.00 | 63 | 1013.7 | |
| 20260505221530 | 60 | 23 | 1.0 | 2.0 | 0.00 | 0.00 | 0.00 | 65 | 1013.7 |
| 20260505220607 | 59 | 0.0 | 0.0 | 0.00 | 0.00 | 0.00 | 70 | 1013.8 | |
| 20260505215524 | 60 | 0.0 | 0.0 | 0.00 | 0.00 | 0.00 | 69 | 1013.9 | |
| 20260505214602 | 60 | 0.0 | 0.0 | 0.00 | 0.00 | 0.00 | 70 | 1014.1 | |
| 20260505213539 | 60 | 0.0 | 0.0 | 0.00 | 0.00 | 0.00 | 72 | 1014.1 | |
| 20260505212517 | 60 | 0.0 | 0.0 | 0.00 | 0.00 | 0.00 | 73 | 1014.1 | |
| 20260505211614 | 60 | 0.0 | 0.0 | 0.00 | 0.00 | 0.00 | 73 | 1014.1 | |
| 20260505210612 | 60 | 0.0 | 0.0 | 0.00 | 0.00 | 0.00 | 73 | 1014.2 | |
| 20260505205609 | 60 | 0.0 | 0.0 | 0.00 | 0.00 | 0.00 | 75 | 1014.0 | |
| 20260505204606 | 60 | 0.0 | 0.0 | 0.00 | 0.00 | 0.00 | 75 | 1014.1 | |
| 20260505203604 | 61 | 0.0 | 0.0 | 0.00 | 0.00 | 0.00 | 75 | 1014.0 | |
| 20260505202601 | 61 | 0.0 | 0.0 | 0.00 | 0.00 | 0.00 | 76 | 1014.1 | |
| 20260505201559 | 62 | 0.0 | 0.0 | 0.00 | 0.00 | 0.00 | 74 | 1014.2 | |
| 20260505200556 | 62 | 0.0 | 0.0 | 0.00 | 0.00 | 0.00 | 72 | 1013.9 | |
| 20260505195614 | 63 | 0.0 | 0.0 | 0.00 | 0.00 | 0.00 | 69 | 1013.9 | |
| 20260505194551 | 63 | 0.0 | 0.0 | 0.00 | 0.00 | 0.00 | 68 | 1013.7 | |
| 20260505193548 | 63 | 0.0 | 0.0 | 0.00 | 0.00 | 0.00 | 70 | 1013.7 | |
| 20260505192606 | 64 | 0.0 | 0.0 | 0.00 | 0.00 | 0.00 | 68 | 1013.7 | |
| 20260505191543 | 63 | 0.0 | 0.0 | 0.00 | 0.00 | 0.00 | 69 | 1013.5 | |
| 20260505190540 | 64 | 0.0 | 0.0 | 0.00 | 0.00 | 0.00 | 71 | 1013.3 | |
| 20260505185558 | 64 | 125 | 1.0 | 2.0 | 0.00 | 0.00 | 0.00 | 71 | 1013.3 |
| 20260505184555 | 65 | 124 | 0.0 | 2.0 | 0.00 | 0.00 | 0.00 | 68 | 1013.4 |
| 20260505183533 | 66 | 135 | 0.0 | 2.0 | 0.00 | 0.00 | 0.00 | 68 | 1013.3 |
| 20260505182550 | 67 | 23 | 0.0 | 2.0 | 0.00 | 0.00 | 0.00 | 66 | 1013.2 |
| 20260505181527 | 67 | 170 | 1.0 | 4.0 | 0.00 | 0.00 | 0.00 | 66 | 1013.2 |
| 20260505180525 | 67 | 260 | 3.0 | 4.0 | 0.00 | 0.00 | 0.00 | 64 | 1013.2 |
| 20260505175522 | 69 | 210 | 2.0 | 4.0 | 0.00 | 0.00 | 0.00 | 61 | 1013.2 |
| 20260505174519 | 71 | 183 | 2.0 | 4.0 | 0.00 | 0.00 | 0.00 | 57 | 1013.1 |
| 20260505173537 | 71 | 189 | 2.0 | 4.0 | 0.00 | 0.00 | 0.00 | 57 | 1012.9 |
| 20260505172634 | 70 | 191 | 2.0 | 4.0 | 0.00 | 0.00 | 0.00 | 58 | 1013.0 |
| 20260505171612 | 73 | 214 | 1.0 | 4.0 | 0.00 | 0.00 | 0.00 | 53 | 1012.9 |
| 20260505170609 | 72 | 168 | 1.0 | 4.0 | 0.00 | 0.00 | 0.00 | 52 | 1012.8 |
| 20260505165607 | 71 | 138 | 1.0 | 4.0 | 0.00 | 0.00 | 0.00 | 53 | 1012.9 |
| 20260505164604 | 71 | 202 | 2.0 | 6.0 | 0.00 | 0.00 | 0.00 | 54 | 1013.0 |
| 20260505163621 | 71 | 187 | 2.0 | 4.0 | 0.00 | 0.00 | 0.00 | 55 | 1013.0 |
| 20260505162559 | 72 | 164 | 2.0 | 4.0 | 0.00 | 0.00 | 0.00 | 53 | 1013.0 |
| 20260505161556 | 74 | 183 | 2.0 | 6.0 | 0.00 | 0.00 | 0.00 | 48 | 1012.9 |
| 20260505160553 | 75 | 225 | 3.0 | 8.0 | 0.00 | 0.00 | 0.00 | 46 | 1012.9 |
| 20260505152603 | 75 | 247 | 2.0 | 6.0 | 0.00 | 0.00 | 0.00 | 52 | 1013.0 |
| 20260505151601 | 75 | 195 | 2.0 | 6.0 | 0.00 | 0.00 | 0.00 | 52 | 1012.9 |
| 20260505150538 | 76 | 223 | 1.0 | 7.0 | 0.00 | 0.00 | 0.00 | 52 | 1013.1 |
| 20260505140542 | 75 | 223 | 2.0 | 8.0 | 0.00 | 0.00 | 0.00 | 62 | 1013.3 |
| 20260505124601 | 70 | 26 | 3.0 | 9.0 | 0.00 | 0.00 | 0.00 | 71 | 1013.8 |
| 20260505123619 | 71 | 162 | 3.0 | 9.0 | 0.00 | 0.00 | 0.00 | 71 | 1014.0 |
| 20260505122556 | 72 | 137 | 4.0 | 9.0 | 0.00 | 0.00 | 0.00 | 70 | 1013.8 |
| 20260505121554 | 72 | 204 | 4.0 | 9.0 | 0.00 | 0.00 | 0.00 | 69 | 1014.1 |
| 20260505120551 | 71 | 213 | 3.0 | 8.0 | 0.00 | 0.00 | 0.00 | 70 | 1014.2 |
| 20260505115548 | 71 | 193 | 3.0 | 11.0 | 0.00 | 0.00 | 0.00 | 71 | 1014.1 |
| 20260505114546 | 71 | 186 | 4.0 | 8.0 | 0.00 | 0.00 | 0.00 | 70 | 1014.2 |
| 20260505113543 | 70 | 78 | 4.0 | 9.0 | 0.00 | 0.00 | 0.00 | 71 | 1014.3 |
| 20260505112540 | 71 | 173 | 5.0 | 11.0 | 0.00 | 0.00 | 0.00 | 71 | 1014.1 |
| 20260505111558 | 72 | 182 | 3.0 | 8.0 | 0.00 | 0.00 | 0.00 | 71 | 1014.2 |
| 20260505110535 | 72 | 187 | 3.0 | 7.0 | 0.00 | 0.00 | 0.00 | 71 | 1014.3 |
| 20260505101522 | 71 | 187 | 3.0 | 7.0 | 0.00 | 0.00 | 0.00 | 73 | 1014.4 |
| 20260505100519 | 71 | 187 | 2.0 | 4.0 | 0.00 | 0.00 | 0.00 | 73 | 1014.6 |
| 20260505095517 | 69 | 185 | 1.0 | 4.0 | 0.00 | 0.00 | 0.00 | 75 | 1014.5 |
| 20260505094634 | 68 | 227 | 3.0 | 6.0 | 0.00 | 0.00 | 0.00 | 78 | 1014.5 |
| 20260505093632 | 68 | 207 | 3.0 | 9.0 | 0.00 | 0.00 | 0.00 | 77 | 1014.6 |
| 20260505092609 | 67 | 176 | 2.0 | 4.0 | 0.00 | 0.00 | 0.00 | 79 | 1014.6 |
| 20260505091627 | 68 | 172 | 3.0 | 6.0 | 0.00 | 0.00 | 0.00 | 78 | 1014.4 |
| 20260505090604 | 69 | 210 | 2.0 | 6.0 | 0.00 | 0.00 | 0.00 | 74 | 1014.4 |
| 20260505085642 | 68 | 212 | 1.0 | 4.0 | 0.00 | 0.00 | 0.00 | 76 | 1014.3 |
| 20260505084559 | 69 | 176 | 2.0 | 4.0 | 0.00 | 0.00 | 0.00 | 76 | 1014.3 |
| 20260505083556 | 68 | 170 | 1.0 | 4.0 | 0.00 | 0.00 | 0.00 | 74 | 1014.3 |
| 20260505082553 | 67 | 158 | 0.0 | 2.0 | 0.00 | 0.00 | 0.00 | 76 | 1014.6 |
| 20260505081551 | 67 | 214 | 0.0 | 4.0 | 0.00 | 0.00 | 0.00 | 79 | 1014.4 |
| 20260505080548 | 65 | 180 | 0.0 | 2.0 | 0.00 | 0.00 | 0.00 | 82 | 1014.5 |
| 20260505075546 | 63 | 0.0 | 2.0 | 0.00 | 0.00 | 0.00 | 86 | 1014.5 | |
| 20260505074543 | 62 | 180 | 0.0 | 2.0 | 0.00 | 0.00 | 0.00 | 89 | 1014.4 |
| 20260505073540 | 62 | 195 | 1.0 | 4.0 | 0.00 | 0.00 | 0.00 | 90 | 1014.5 |
| 20260505072538 | 62 | 183 | 1.0 | 4.0 | 0.00 | 0.00 | 0.00 | 90 | 1014.5 |
| 20260505071535 | 62 | 209 | 1.0 | 4.0 | 0.00 | 0.00 | 0.00 | 90 | 1014.4 |
| 20260505070532 | 62 | 145 | 1.0 | 4.0 | 0.00 | 0.00 | 0.00 | 91 | 1014.4 |
| 20260505065530 | 61 | 120 | 1.0 | 4.0 | 0.00 | 0.00 | 0.00 | 92 | 1014.3 |
| 20260505064527 | 61 | 111 | 1.0 | 2.0 | 0.00 | 0.00 | 0.00 | 93 | 1014.3 |
| 20260505063545 | 60 | 180 | 0.0 | 2.0 | 0.00 | 0.00 | 0.00 | 93 | 1014.2 |
| 20260505062522 | 58 | 0.0 | 0.0 | 0.00 | 0.00 | 0.00 | 92 | 1013.9 | |
| 20260505061519 | 57 | 0.0 | 0.0 | 0.00 | 0.00 | 0.00 | 92 | 1013.8 | |
| 20260505060557 | 57 | 0.0 | 2.0 | 0.00 | 0.00 | 0.00 | 93 | 1013.8 | |
| 20260505055614 | 57 | 0.0 | 0.0 | 0.00 | 0.00 | 0.00 | 93 | 1013.8 | |
| 20260505054612 | 57 | 0.0 | 0.0 | 0.00 | 0.00 | 0.00 | 93 | 1013.9 | |
| 20260505053609 | 57 | 0.0 | 0.0 | 0.00 | 0.00 | 0.00 | 93 | 1013.8 | |
| 20260505052607 | 57 | 0.0 | 0.0 | 0.00 | 0.00 | 0.00 | 93 | 1013.7 | |
| 20260505051604 | 57 | 0.0 | 0.0 | 0.00 | 0.00 | 0.00 | 93 | 1013.6 | |
| 20260505050621 | 57 | 0.0 | 0.0 | 0.00 | 0.00 | 0.00 | 93 | 1013.5 | |
| 20260505041548 | 60 | 120 | 2.0 | 4.0 | 0.00 | 0.00 | 0.00 | 91 | 1013.7 |
| 20260505040546 | 60 | 137 | 1.0 | 4.0 | 0.00 | 0.00 | 0.00 | 89 | 1013.5 |
| 20260505035623 | 60 | 144 | 1.0 | 2.0 | 0.00 | 0.00 | 0.00 | 88 | 1013.5 |
| 20260505034540 | 60 | 135 | 0.0 | 2.0 | 0.00 | 0.00 | 0.00 | 84 | 1013.4 |
| 20260505033538 | 60 | 148 | 0.0 | 2.0 | 0.00 | 0.00 | 0.00 | 73 | 1013.6 |
| 20260505032535 | 61 | 0.0 | 0.0 | 0.00 | 0.00 | 0.00 | 61 | 1013.7 | |
| 20260505031533 | 61 | 101 | 0.0 | 2.0 | 0.00 | 0.00 | 0.00 | 61 | 1013.6 |
| 20260505030530 | 59 | 0 | 0.0 | 2.0 | 0.00 | 0.00 | 0.00 | 66 | 1013.6 |
| 20260505025527 | 60 | 68 | 0.0 | 2.0 | 0.00 | 0.00 | 0.00 | 67 | 1013.5 |
| 20260505024524 | 58 | 0.0 | 0.0 | 0.00 | 0.06 | 0.00 | 75 | 1013.6 | |
| 20260505023522 | 57 | 11 | 0.0 | 2.0 | 0.00 | 0.06 | 0.00 | 89 | 1013.5 |
| 20260505022519 | 58 | 0.0 | 0.0 | 0.00 | 0.06 | 0.00 | 94 | 1013.4 | |
| 20260505021557 | 58 | 0.0 | 0.0 | 0.00 | 0.14 | 0.00 | 94 | 1013.6 | |
| 20260505020614 | 58 | 0.0 | 0.0 | 0.00 | 0.14 | 0.00 | 94 | 1013.6 | |
| 20260505015612 | 58 | 0.0 | 0.0 | 0.00 | 0.14 | 0.00 | 95 | 1013.8 | |
| 20260505014609 | 58 | 0.0 | 0.0 | 0.00 | 0.14 | 0.00 | 95 | 1013.8 | |
| 20260505013606 | 57 | 0.0 | 0.0 | 0.00 | 0.14 | 0.00 | 94 | 1014.0 | |
| 20260505012604 | 57 | 0.0 | 0.0 | 0.00 | 0.14 | 0.00 | 94 | 1014.1 | |
| 20260505011601 | 57 | 0.0 | 0.0 | 0.00 | 0.14 | 0.00 | 94 | 1014.3 | |
| 20260505010558 | 58 | 0.0 | 0.0 | 0.00 | 0.14 | 0.00 | 94 | 1014.4 | |
| 20260505005556 | 58 | 0.0 | 0.0 | 0.00 | 0.14 | 0.00 | 94 | 1014.6 | |
| 20260505004558 | 59 | 0.0 | 2.0 | 0.00 | 0.14 | 0.00 | 93 | 1014.6 | |
| 20260505003550 | 59 | 128 | 3.0 | 4.0 | 0.00 | 0.14 | 0.00 | 94 | 1014.6 |
| 20260505002548 | 59 | 143 | 3.0 | 6.0 | 0.00 | 0.14 | 0.00 | 95 | 1014.6 |